Time,TemperatureF,DewpointF,PressureIn,WindDirection,WindDirectionDegrees,WindSpeedMPH,WindSpeedGustMPH,Humidity,HourlyPrecipIn,Conditions,Clouds,dailyrainin,SoftwareType,DateUTC
2013-04-06 00:09:00,42.0,26.5,29.80,SW,222,0.0,0.0,54,0.00,,,0.00,Wunderground v.1.15,2013-04-06 06:09:00,
2013-04-06 00:14:00,41.9,26.0,29.80,SW,222,0.0,0.0,53,0.00,,,0.00,Wunderground v.1.15,2013-04-06 06:14:00,
2013-04-06 00:24:00,41.7,27.1,29.79,SW,222,0.0,0.0,56,0.00,,,0.00,Wunderground v.1.15,2013-04-06 06:24:00,
2013-04-06 00:34:00,41.0,25.2,29.79,SW,222,1.0,1.0,53,0.00,,,0.00,Wunderground v.1.15,2013-04-06 06:34:00,
2013-04-06 00:39:00,40.5,25.1,29.79,SW,222,0.0,0.0,54,0.00,,,0.00,Wunderground v.1.15,2013-04-06 06:39:00,
2013-04-06 00:44:00,40.2,24.9,29.80,SW,222,0.0,0.0,54,0.00,,,0.00,Wunderground v.1.15,2013-04-06 06:44:00,
2013-04-06 00:54:00,39.5,25.9,29.80,SW,222,0.0,1.0,58,0.00,,,0.00,Wunderground v.1.15,2013-04-06 06:54:00,
2013-04-06 00:59:00,39.4,25.4,29.80,SW,222,1.0,1.0,57,0.00,,,0.00,Wunderground v.1.15,2013-04-06 06:59:00,
2013-04-06 01:09:00,38.8,26.1,29.80,SW,222,0.0,0.0,60,0.00,,,0.00,Wunderground v.1.15,2013-04-06 07:09:00,
2013-04-06 01:14:00,38.4,25.7,29.80,SW,222,0.0,0.0,60,0.00,,,0.00,Wunderground v.1.15,2013-04-06 07:14:00,
2013-04-06 01:24:00,38.1,25.4,29.80,SW,222,0.0,1.0,60,0.00,,,0.00,Wunderground v.1.15,2013-04-06 07:24:00,
2013-04-06 01:29:00,38.1,25.0,29.80,SW,222,0.0,0.0,59,0.00,,,0.00,Wunderground v.1.15,2013-04-06 07:29:00,
2013-04-06 01:34:00,37.9,25.6,29.81,SW,222,0.0,0.0,61,0.00,,,0.00,Wunderground v.1.15,2013-04-06 07:34:00,
2013-04-06 01:39:00,37.9,25.6,29.81,SW,222,0.0,0.0,61,0.00,,,0.00,Wunderground v.1.15,2013-04-06 07:39:00,
2013-04-06 01:44:00,37.7,25.8,29.81,SW,222,0.0,0.0,62,0.00,,,0.00,Wunderground v.1.15,2013-04-06 07:44:00,
2013-04-06 01:49:00,37.6,25.7,29.81,SW,222,0.0,0.0,62,0.00,,,0.00,Wunderground v.1.15,2013-04-06 07:49:00,
2013-04-06 01:59:00,37.3,25.8,29.81,SW,222,0.0,0.0,63,0.00,,,0.00,Wunderground v.1.15,2013-04-06 07:59:00,
2013-04-06 02:09:00,37.3,25.1,29.81,SW,222,0.0,0.0,61,0.00,,,0.00,Wunderground v.1.15,2013-04-06 08:09:00,
2013-04-06 02:14:00,37.2,25.4,29.81,SW,222,0.0,0.0,62,0.00,,,0.00,Wunderground v.1.15,2013-04-06 08:14:00,
2013-04-06 02:24:00,37.0,25.9,29.80,SW,222,0.0,0.0,64,0.00,,,0.00,Wunderground v.1.15,2013-04-06 08:24:00,
2013-04-06 02:34:00,36.8,25.0,29.80,SW,222,0.0,0.0,62,0.00,,,0.00,Wunderground v.1.15,2013-04-06 08:34:00,
2013-04-06 02:44:00,36.6,25.2,29.80,SW,222,0.0,0.0,63,0.00,,,0.00,Wunderground v.1.15,2013-04-06 08:44:00,
2013-04-06 02:49:00,36.4,25.4,29.80,SW,222,0.0,0.0,64,0.00,,,0.00,Wunderground v.1.15,2013-04-06 08:49:00,
2013-04-06 02:59:00,35.8,25.2,29.80,SW,222,0.0,0.0,65,0.00,,,0.00,Wunderground v.1.15,2013-04-06 08:59:00,
2013-04-06 03:09:00,35.5,24.5,29.80,SW,222,1.0,1.0,64,0.00,,,0.00,Wunderground v.1.15,2013-04-06 09:09:00,
2013-04-06 03:14:00,35.3,25.4,29.80,SW,222,1.0,1.0,67,0.00,,,0.00,Wunderground v.1.15,2013-04-06 09:14:00,
2013-04-06 03:24:00,34.9,25.0,29.80,SW,222,0.0,0.0,67,0.00,,,0.00,Wunderground v.1.15,2013-04-06 09:24:00,
2013-04-06 03:29:00,34.8,24.6,29.80,SW,222,0.0,0.0,66,0.00,,,0.00,Wunderground v.1.15,2013-04-06 09:29:00,
2013-04-06 03:39:00,34.2,24.7,29.79,SW,222,0.0,0.0,68,0.00,,,0.00,Wunderground v.1.15,2013-04-06 09:39:00,
2013-04-06 03:49:00,33.6,24.5,29.78,SW,222,0.0,0.0,69,0.00,,,0.00,Wunderground v.1.15,2013-04-06 09:49:00,
2013-04-06 03:54:00,33.5,24.4,29.78,SW,222,0.0,0.0,69,0.00,,,0.00,Wunderground v.1.15,2013-04-06 09:54:00,
2013-04-06 04:04:00,33.0,24.3,29.78,SW,222,0.0,0.0,70,0.00,,,0.00,Wunderground v.1.15,2013-04-06 10:04:00,
2013-04-06 04:09:00,32.9,24.2,29.78,SW,222,0.0,0.0,70,0.00,,,0.00,Wunderground v.1.15,2013-04-06 10:09:00,
2013-04-06 04:14:00,32.7,24.3,29.78,SW,222,0.0,0.0,71,0.00,,,0.00,Wunderground v.1.15,2013-04-06 10:14:00,
2013-04-06 04:19:00,32.5,24.1,29.78,SW,222,0.0,0.0,71,0.00,,,0.00,Wunderground v.1.15,2013-04-06 10:19:00,
2013-04-06 04:24:00,32.3,23.9,29.78,SW,222,0.0,0.0,71,0.00,,,0.00,Wunderground v.1.15,2013-04-06 10:24:00,
2013-04-06 04:29:00,32.0,24.0,29.78,SW,222,0.0,0.0,72,0.00,,,0.00,Wunderground v.1.15,2013-04-06 10:29:00,
2013-04-06 04:39:00,31.5,23.8,29.78,SW,222,0.0,0.0,73,0.00,,,0.00,Wunderground v.1.15,2013-04-06 10:39:00,
2013-04-06 04:44:00,31.3,23.6,29.78,SW,222,0.0,0.0,73,0.00,,,0.00,Wunderground v.1.15,2013-04-06 10:44:00,
2013-04-06 04:54:00,31.0,23.7,29.78,SW,222,0.0,0.0,74,0.00,,,0.00,Wunderground v.1.15,2013-04-06 10:54:00,
2013-04-06 04:59:00,30.7,23.7,29.78,SW,222,0.0,0.0,75,0.00,,,0.00,Wunderground v.1.15,2013-04-06 10:59:00,
2013-04-06 05:09:00,30.5,23.5,29.78,SW,222,0.0,0.0,75,0.00,,,0.00,Wunderground v.1.15,2013-04-06 11:09:00,
2013-04-06 05:14:00,30.4,23.4,29.78,SW,222,0.0,0.0,75,0.00,,,0.00,Wunderground v.1.15,2013-04-06 11:14:00,
2013-04-06 05:24:00,30.1,23.4,29.78,SW,222,0.0,0.0,76,0.00,,,0.00,Wunderground v.1.15,2013-04-06 11:24:00,
2013-04-06 05:29:00,29.9,23.3,29.78,SW,222,0.0,0.0,76,0.00,,,0.00,Wunderground v.1.15,2013-04-06 11:29:00,
2013-04-06 05:39:00,29.9,23.3,29.78,SW,222,0.0,0.0,76,0.00,,,0.00,Wunderground v.1.15,2013-04-06 11:39:00,
2013-04-06 05:44:00,29.9,23.3,29.78,SW,222,0.0,0.0,76,0.00,,,0.00,Wunderground v.1.15,2013-04-06 11:44:00,
2013-04-06 05:49:00,29.8,23.5,29.79,SW,222,0.0,0.0,77,0.00,,,0.00,Wunderground v.1.15,2013-04-06 11:49:00,
2013-04-06 05:59:00,29.7,23.4,29.79,SW,222,0.0,0.0,77,0.00,,,0.00,Wunderground v.1.15,2013-04-06 11:59:00,
2013-04-06 06:14:00,29.6,23.3,29.80,SW,222,0.0,0.0,77,0.00,,,0.00,Wunderground v.1.15,2013-04-06 12:14:00,
2013-04-06 06:24:00,29.5,23.2,29.80,SW,222,0.0,0.0,77,0.00,,,0.00,Wunderground v.1.15,2013-04-06 12:24:00,
2013-04-06 06:29:00,29.4,23.1,29.80,SW,222,0.0,0.0,77,0.00,,,0.00,Wunderground v.1.15,2013-04-06 12:29:00,
2013-04-06 06:39:00,29.6,23.3,29.81,SW,222,0.0,0.0,77,0.00,,,0.00,Wunderground v.1.15,2013-04-06 12:39:00,
2013-04-06 06:49:00,29.5,23.2,29.81,SW,222,0.0,0.0,77,0.00,,,0.00,Wunderground v.1.15,2013-04-06 12:49:00,
2013-04-06 06:54:00,29.4,23.4,29.82,SW,222,0.0,0.0,78,0.00,,,0.00,Wunderground v.1.15,2013-04-06 12:54:00,
2013-04-06 06:59:00,29.5,23.2,29.82,SW,222,0.0,0.0,77,0.00,,,0.00,Wunderground v.1.15,2013-04-06 12:59:00,
2013-04-06 07:09:00,29.4,23.1,29.82,SW,222,0.0,0.0,77,0.00,,,0.00,Wunderground v.1.15,2013-04-06 13:09:00,
2013-04-06 07:14:00,29.6,23.3,29.83,SW,222,0.0,0.0,77,0.00,,,0.00,Wunderground v.1.15,2013-04-06 13:14:00,
2013-04-06 07:24:00,29.8,23.5,29.83,SW,222,0.0,0.0,77,0.00,,,0.00,Wunderground v.1.15,2013-04-06 13:24:00,
2013-04-06 07:29:00,30.0,24.0,29.83,SW,222,0.0,0.0,78,0.00,,,0.00,Wunderground v.1.15,2013-04-06 13:29:00,
2013-04-06 07:39:00,30.2,23.9,29.84,SW,222,0.0,0.0,77,0.00,,,0.00,Wunderground v.1.15,2013-04-06 13:39:00,
2013-04-06 07:49:00,30.6,24.2,29.85,SSW,199,0.0,0.0,77,0.00,,,0.00,Wunderground v.1.15,2013-04-06 13:49:00,
2013-04-06 07:54:00,30.8,24.4,29.85,SSW,199,0.0,0.0,77,0.00,,,0.00,Wunderground v.1.15,2013-04-06 13:54:00,
2013-04-06 07:59:00,32.5,26.1,29.85,SSW,199,0.0,0.0,77,0.00,,,0.00,Wunderground v.1.15,2013-04-06 13:59:00,
2013-04-06 08:09:00,31.8,25.1,29.85,South,176,0.0,0.0,76,0.00,,,0.00,Wunderground v.1.15,2013-04-06 14:09:00,
2013-04-06 08:14:00,32.0,25.3,29.84,South,176,0.0,0.0,76,0.00,,,0.00,Wunderground v.1.15,2013-04-06 14:14:00,
2013-04-06 08:19:00,32.3,25.6,29.84,South,172,0.0,0.0,76,0.00,,,0.00,Wunderground v.1.15,2013-04-06 14:19:00,
2013-04-06 08:29:00,33.2,26.1,29.84,South,172,0.0,0.0,75,0.00,,,0.00,Wunderground v.1.15,2013-04-06 14:29:00,
2013-04-06 08:34:00,34.1,27.0,29.84,South,172,0.0,0.0,75,0.00,,,0.00,Wunderground v.1.15,2013-04-06 14:34:00,
2013-04-06 08:39:00,34.8,27.0,29.84,South,172,0.0,1.0,73,0.00,,,0.00,Wunderground v.1.15,2013-04-06 14:39:00,
2013-04-06 08:44:00,35.8,26.6,29.84,South,172,0.0,1.0,69,0.00,,,0.00,Wunderground v.1.15,2013-04-06 14:44:00,
2013-04-06 08:54:00,35.9,27.1,29.84,South,172,0.0,0.0,70,0.00,,,0.00,Wunderground v.1.15,2013-04-06 14:54:00,
2013-04-06 08:59:00,36.5,28.0,29.84,SSE,156,0.0,0.0,71,0.00,,,0.00,Wunderground v.1.15,2013-04-06 14:59:00,
2013-04-06 09:09:00,39.1,27.2,29.84,ESE,122,0.0,0.0,62,0.00,,,0.00,Wunderground v.1.15,2013-04-06 15:09:00,
2013-04-06 09:19:00,40.9,27.2,29.84,SSW,204,0.0,1.0,58,0.00,,,0.00,Wunderground v.1.15,2013-04-06 15:19:00,
2013-04-06 09:24:00,42.3,27.7,29.84,NW,323,0.0,1.0,56,0.00,,,0.00,Wunderground v.1.15,2013-04-06 15:24:00,
2013-04-06 09:29:00,43.2,26.7,29.84,SE,140,0.0,0.0,52,0.00,,,0.00,Wunderground v.1.15,2013-04-06 15:29:00,
2013-04-06 09:34:00,44.7,27.2,29.85,ESE,107,1.0,3.0,50,0.00,,,0.00,Wunderground v.1.15,2013-04-06 15:34:00,
2013-04-06 09:44:00,48.1,26.1,29.85,North,10,2.0,3.0,42,0.00,,,0.00,Wunderground v.1.15,2013-04-06 15:44:00,
2013-04-06 09:49:00,49.6,25.6,29.85,NW,324,3.0,8.0,39,0.00,,,0.00,Wunderground v.1.15,2013-04-06 15:49:00,
2013-04-06 09:54:00,49.8,25.2,29.84,NW,318,4.0,8.0,38,0.00,,,0.00,Wunderground v.1.15,2013-04-06 15:54:00,
2013-04-06 10:00:00,50.3,25.0,29.84,NNW,334,4.0,4.0,37,0.00,,,0.00,Wunderground v.1.15,2013-04-06 16:00:00,
2013-04-06 10:14:00,50.8,25.4,29.84,NNW,332,4.0,9.0,37,0.00,,,0.00,Wunderground v.1.15,2013-04-06 16:14:00,
2013-04-06 10:19:00,50.9,24.9,29.84,NNW,334,5.0,5.0,36,0.00,,,0.00,Wunderground v.1.15,2013-04-06 16:19:00,
2013-04-06 10:24:00,51.1,26.3,29.84,NNW,343,5.0,5.0,38,0.00,,,0.00,Wunderground v.1.15,2013-04-06 16:24:00,
2013-04-06 10:29:00,51.2,25.8,29.84,NNW,337,4.0,7.0,37,0.00,,,0.00,Wunderground v.1.15,2013-04-06 16:29:00,
2013-04-06 10:39:00,51.4,25.3,29.84,NW,323,5.0,7.0,36,0.00,,,0.00,Wunderground v.1.15,2013-04-06 16:39:00,
2013-04-06 10:44:00,51.2,25.8,29.84,NW,326,5.0,7.0,37,0.00,,,0.00,Wunderground v.1.15,2013-04-06 16:44:00,
2013-04-06 10:49:00,51.2,25.8,29.85,NW,316,6.0,11.0,37,0.00,,,0.00,Wunderground v.1.15,2013-04-06 16:49:00,
2013-04-06 10:59:00,51.4,26.6,29.85,NNW,334,5.0,5.0,38,0.00,,,0.00,Wunderground v.1.15,2013-04-06 16:59:00,
2013-04-06 11:09:00,52.7,25.8,29.85,North,355,5.0,5.0,35,0.00,,,0.00,Wunderground v.1.15,2013-04-06 17:09:00,
2013-04-06 11:14:00,52.9,26.6,29.84,NNW,327,5.0,11.0,36,0.00,,,0.00,Wunderground v.1.15,2013-04-06 17:14:00,
2013-04-06 11:19:00,53.0,26.0,29.84,NW,309,5.0,5.0,35,0.00,,,0.00,Wunderground v.1.15,2013-04-06 17:19:00,
2013-04-06 11:24:00,53.3,26.3,29.85,NNW,333,5.0,13.0,35,0.00,,,0.00,Wunderground v.1.15,2013-04-06 17:24:00,
2013-04-06 11:29:00,53.3,26.3,29.85,NW,323,6.0,6.0,35,0.00,,,0.00,Wunderground v.1.15,2013-04-06 17:29:00,
2013-04-06 11:39:00,53.3,26.3,29.85,NW,308,5.0,5.0,35,0.00,,,0.00,Wunderground v.1.15,2013-04-06 17:39:00,
2013-04-06 11:44:00,53.8,25.3,29.84,North,10,4.0,5.0,33,0.00,,,0.00,Wunderground v.1.15,2013-04-06 17:44:00,
2013-04-06 11:54:00,53.3,24.9,29.84,NW,323,5.0,9.0,33,0.00,,,0.00,Wunderground v.1.15,2013-04-06 17:54:00,
2013-04-06 12:04:00,53.5,25.1,29.84,NNW,329,5.0,6.0,33,0.00,,,0.00,Wunderground v.1.15,2013-04-06 18:04:00,
2013-04-06 12:09:00,54.2,24.2,29.84,NNW,347,5.0,5.0,31,0.00,,,0.00,Wunderground v.1.15,2013-04-06 18:09:00,
2013-04-06 12:19:00,53.6,23.7,29.84,NNE,28,6.0,6.0,31,0.00,,,0.00,Wunderground v.1.15,2013-04-06 18:19:00,
2013-04-06 12:24:00,54.1,24.1,29.83,NW,311,4.0,14.0,31,0.00,,,0.00,Wunderground v.1.15,2013-04-06 18:24:00,
2013-04-06 12:29:00,54.5,23.7,29.83,NNW,327,5.0,6.0,30,0.00,,,0.00,Wunderground v.1.15,2013-04-06 18:29:00,
2013-04-06 12:34:00,54.2,23.4,29.83,NNW,342,7.0,7.0,30,0.00,,,0.00,Wunderground v.1.15,2013-04-06 18:34:00,
2013-04-06 12:39:00,54.5,23.7,29.83,NNW,331,7.0,9.0,30,0.00,,,0.00,Wunderground v.1.15,2013-04-06 18:39:00,
2013-04-06 12:44:00,54.7,22.2,29.83,NNW,346,7.0,9.0,28,0.00,,,0.00,Wunderground v.1.15,2013-04-06 18:44:00,
2013-04-06 12:54:00,54.2,21.8,29.82,ESE,111,6.0,6.0,28,0.00,,,0.00,Wunderground v.1.15,2013-04-06 18:54:00,
2013-04-06 12:59:00,54.9,23.2,29.82,NNW,336,6.0,6.0,29,0.00,,,0.00,Wunderground v.1.15,2013-04-06 18:59:00,
2013-04-06 13:09:00,55.7,21.3,29.82,NW,314,5.0,5.0,26,0.00,,,0.00,Wunderground v.1.15,2013-04-06 19:09:00,
2013-04-06 13:24:00,55.7,20.4,29.81,NW,320,6.0,8.0,25,0.00,,,0.00,Wunderground v.1.15,2013-04-06 19:24:00,
2013-04-06 13:29:00,55.4,21.0,29.80,West,263,8.0,8.0,26,0.00,,,0.00,Wunderground v.1.15,2013-04-06 19:29:00,
2013-04-06 13:44:00,55.8,20.5,29.80,NNW,333,6.0,12.0,25,0.00,,,0.00,Wunderground v.1.15,2013-04-06 19:44:00,
2013-04-06 13:54:00,56.4,20.0,29.80,NNW,336,7.0,7.0,24,0.00,,,0.00,Wunderground v.1.15,2013-04-06 19:54:00,
2013-04-06 13:59:00,56.8,21.3,29.79,NW,325,5.0,5.0,25,0.00,,,0.00,Wunderground v.1.15,2013-04-06 19:59:00,
2013-04-06 14:09:00,56.3,19.9,29.78,NNW,344,5.0,5.0,24,0.00,,,0.00,Wunderground v.1.15,2013-04-06 20:09:00,
2013-04-06 14:14:00,56.7,20.3,29.79,NW,311,6.0,7.0,24,0.00,,,0.00,Wunderground v.1.15,2013-04-06 20:14:00,
2013-04-06 14:24:00,56.7,21.2,29.79,NNE,26,6.0,7.0,25,0.00,,,0.00,Wunderground v.1.15,2013-04-06 20:24:00,
2013-04-06 14:34:00,55.3,21.8,29.78,WNW,291,2.0,4.0,27,0.00,,,0.00,Wunderground v.1.15,2013-04-06 20:34:00,
2013-04-06 14:39:00,55.6,21.2,29.78,NNW,332,2.0,2.0,26,0.00,,,0.00,Wunderground v.1.15,2013-04-06 20:39:00,
2013-04-06 14:44:00,55.4,21.9,29.78,North,349,2.0,5.0,27,0.00,,,0.00,Wunderground v.1.15,2013-04-06 20:44:00,
2013-04-06 14:54:00,56.3,21.8,29.77,NNW,328,4.0,6.0,26,0.00,,,0.00,Wunderground v.1.15,2013-04-06 20:54:00,
2013-04-06 14:59:00,56.0,22.4,29.78,NNW,333,4.0,7.0,27,0.00,,,0.00,Wunderground v.1.15,2013-04-06 20:59:00,
2013-04-06 15:09:00,55.4,21.9,29.77,NW,326,4.0,4.0,27,0.00,,,0.00,Wunderground v.1.15,2013-04-06 21:09:00,
2013-04-06 15:14:00,56.0,23.3,29.77,NNW,333,4.0,4.0,28,0.00,,,0.00,Wunderground v.1.15,2013-04-06 21:14:00,
2013-04-06 15:24:00,55.5,22.9,29.76,North,349,6.0,6.0,28,0.00,,,0.00,Wunderground v.1.15,2013-04-06 21:24:00,
2013-04-06 15:34:00,57.1,22.5,29.76,NW,323,6.0,11.0,26,0.00,,,0.00,Wunderground v.1.15,2013-04-06 21:34:00,
2013-04-06 15:39:00,56.6,23.0,29.76,NNE,16,6.0,6.0,27,0.00,,,0.00,Wunderground v.1.15,2013-04-06 21:39:00,
2013-04-06 15:49:00,56.5,22.9,29.76,NNW,333,3.0,4.0,27,0.00,,,0.00,Wunderground v.1.15,2013-04-06 21:49:00,
2013-04-06 15:54:00,56.2,22.6,29.76,NNW,330,5.0,6.0,27,0.00,,,0.00,Wunderground v.1.15,2013-04-06 21:54:00,
2013-04-06 15:59:00,56.5,22.9,29.75,NNW,342,6.0,11.0,27,0.00,,,0.00,Wunderground v.1.15,2013-04-06 21:59:00,
2013-04-06 16:09:00,57.1,22.5,29.75,NNW,345,6.0,7.0,26,0.00,,,0.00,Wunderground v.1.15,2013-04-06 22:09:00,
2013-04-06 16:14:00,57.1,22.5,29.75,NNW,336,7.0,11.0,26,0.00,,,0.00,Wunderground v.1.15,2013-04-06 22:14:00,
2013-04-06 16:19:00,57.1,22.5,29.75,NNW,331,7.0,7.0,26,0.00,,,0.00,Wunderground v.1.15,2013-04-06 22:19:00,
2013-04-06 16:24:00,56.8,24.0,29.75,NNW,327,5.0,7.0,28,0.00,,,0.00,Wunderground v.1.15,2013-04-06 22:24:00,
2013-04-06 16:29:00,56.6,23.0,29.74,NNW,336,4.0,5.0,27,0.00,,,0.00,Wunderground v.1.15,2013-04-06 22:29:00,
2013-04-06 16:39:00,56.3,22.7,29.74,NNW,331,6.0,7.0,27,0.00,,,0.00,Wunderground v.1.15,2013-04-06 22:39:00,
2013-04-06 16:44:00,56.4,23.7,29.75,NNE,15,7.0,7.0,28,0.00,,,0.00,Wunderground v.1.15,2013-04-06 22:44:00,
2013-04-06 16:49:00,55.9,22.4,29.74,NNW,330,6.0,6.0,27,0.00,,,0.00,Wunderground v.1.15,2013-04-06 22:49:00,
2013-04-06 16:54:00,55.9,23.2,29.74,NNW,338,3.0,6.0,28,0.00,,,0.00,Wunderground v.1.15,2013-04-06 22:54:00,
2013-04-06 16:59:00,56.1,22.5,29.74,NNW,342,3.0,6.0,27,0.00,,,0.00,Wunderground v.1.15,2013-04-06 22:59:00,
2013-04-06 17:09:00,56.8,22.2,29.74,NNW,348,5.0,5.0,26,0.00,,,0.00,Wunderground v.1.15,2013-04-06 23:09:00,
2013-04-06 17:14:00,57.4,21.8,29.73,WNW,290,6.0,6.0,25,0.00,,,0.00,Wunderground v.1.15,2013-04-06 23:14:00,
2013-04-06 17:19:00,57.4,21.8,29.73,NNW,340,5.0,5.0,25,0.00,,,0.00,Wunderground v.1.15,2013-04-06 23:19:00,
2013-04-06 17:24:00,57.1,22.5,29.74,WNW,294,4.0,6.0,26,0.00,,,0.00,Wunderground v.1.15,2013-04-06 23:24:00,
2013-04-06 17:29:00,56.4,21.9,29.74,NNW,331,3.0,3.0,26,0.00,,,0.00,Wunderground v.1.15,2013-04-06 23:29:00,
2013-04-06 17:39:00,56.9,21.4,29.73,NNW,343,3.0,3.0,25,0.00,,,0.00,Wunderground v.1.15,2013-04-06 23:39:00,
2013-04-06 17:44:00,57.0,21.5,29.73,WNW,291,5.0,5.0,25,0.00,,,0.00,Wunderground v.1.15,2013-04-06 23:44:00,
2013-04-06 17:54:00,56.3,20.9,29.73,NNW,340,4.0,5.0,25,0.00,,,0.00,Wunderground v.1.15,2013-04-06 23:54:00,
2013-04-06 17:59:00,56.1,21.6,29.73,NNW,330,5.0,5.0,26,0.00,,,0.00,Wunderground v.1.15,2013-04-06 23:59:00,
2013-04-06 18:09:00,55.8,21.4,29.73,NNW,339,2.0,2.0,26,0.00,,,0.00,Wunderground v.1.15,2013-04-07 00:09:00,
2013-04-06 18:19:00,56.1,21.6,29.73,NNW,334,5.0,5.0,26,0.00,,,0.00,Wunderground v.1.15,2013-04-07 00:19:00,
2013-04-06 18:24:00,56.0,21.6,29.73,NNW,330,5.0,5.0,26,0.00,,,0.00,Wunderground v.1.15,2013-04-07 00:24:00,
2013-04-06 18:34:00,55.8,21.4,29.73,WNW,292,3.0,7.0,26,0.00,,,0.00,Wunderground v.1.15,2013-04-07 00:34:00,
2013-04-06 18:39:00,55.0,23.3,29.73,WNW,294,2.0,2.0,29,0.00,,,0.00,Wunderground v.1.15,2013-04-07 00:39:00,
2013-04-06 18:44:00,53.9,23.1,29.73,West,268,1.0,2.0,30,0.00,,,0.00,Wunderground v.1.15,2013-04-07 00:44:00,
2013-04-06 18:49:00,53.4,23.5,29.73,WNW,296,1.0,1.0,31,0.00,,,0.00,Wunderground v.1.15,2013-04-07 00:49:00,
2013-04-06 18:54:00,53.7,20.5,29.73,NW,323,2.0,4.0,27,0.00,,,0.00,Wunderground v.1.15,2013-04-07 00:54:00,
2013-04-06 18:59:00,54.2,21.8,29.73,WNW,294,2.0,2.0,28,0.00,,,0.00,Wunderground v.1.15,2013-04-07 00:59:00,
2013-04-06 19:09:00,54.1,20.8,29.73,NW,309,2.0,5.0,27,0.00,,,0.00,Wunderground v.1.15,2013-04-07 01:09:00,
2013-04-06 19:14:00,54.0,22.4,29.73,NW,315,3.0,5.0,29,0.00,,,0.00,Wunderground v.1.15,2013-04-07 01:14:00,
2013-04-06 19:24:00,53.6,20.4,29.73,NNW,329,3.0,3.0,27,0.00,,,0.00,Wunderground v.1.15,2013-04-07 01:24:00,
2013-04-06 19:29:00,53.3,21.8,29.74,NNW,329,3.0,3.0,29,0.00,,,0.00,Wunderground v.1.15,2013-04-07 01:29:00,
2013-04-06 19:34:00,52.8,20.5,29.74,NW,319,2.0,3.0,28,0.00,,,0.00,Wunderground v.1.15,2013-04-07 01:34:00,
2013-04-06 19:39:00,53.0,19.9,29.74,NNW,337,3.0,3.0,27,0.00,,,0.00,Wunderground v.1.15,2013-04-07 01:39:00,
2013-04-06 19:49:00,50.9,22.8,29.75,WNW,286,2.0,2.0,33,0.00,,,0.00,Wunderground v.1.15,2013-04-07 01:49:00,
2013-04-06 19:59:00,49.2,23.4,29.75,West,275,1.0,1.0,36,0.00,,,0.00,Wunderground v.1.15,2013-04-07 01:59:00,
2013-04-06 20:09:00,47.5,24.3,29.75,West,263,0.0,0.0,40,0.00,,,0.00,Wunderground v.1.15,2013-04-07 02:09:00,
2013-04-06 20:19:00,46.3,26.1,29.76,West,263,0.0,0.0,45,0.00,,,0.00,Wunderground v.1.15,2013-04-07 02:19:00,
2013-04-06 20:29:00,45.3,25.7,29.76,West,263,0.0,0.0,46,0.00,,,0.00,Wunderground v.1.15,2013-04-07 02:29:00,
2013-04-06 20:39:00,44.6,26.1,29.76,West,263,0.0,0.0,48,0.00,,,0.00,Wunderground v.1.15,2013-04-07 02:39:00,
2013-04-06 20:49:00,43.9,26.4,29.76,West,263,0.0,0.0,50,0.00,,,0.00,Wunderground v.1.15,2013-04-07 02:49:00,
2013-04-06 20:54:00,43.7,27.7,29.77,West,263,0.0,0.0,53,0.00,,,0.00,Wunderground v.1.15,2013-04-07 02:54:00,
2013-04-06 21:04:00,43.2,26.7,29.77,West,263,0.0,0.0,52,0.00,,,0.00,Wunderground v.1.15,2013-04-07 03:04:00,
2013-04-06 21:09:00,43.0,27.5,29.77,West,263,0.0,0.0,54,0.00,,,0.00,Wunderground v.1.15,2013-04-07 03:09:00,
2013-04-06 21:19:00,42.7,27.2,29.77,West,263,0.0,0.0,54,0.00,,,0.00,Wunderground v.1.15,2013-04-07 03:19:00,
2013-04-06 21:29:00,42.4,26.9,29.77,West,263,0.0,0.0,54,0.00,,,0.00,Wunderground v.1.15,2013-04-07 03:29:00,
2013-04-06 21:39:00,42.2,27.2,29.78,West,263,0.0,0.0,55,0.00,,,0.00,Wunderground v.1.15,2013-04-07 03:39:00,
2013-04-06 21:44:00,41.9,26.9,29.78,West,263,0.0,0.0,55,0.00,,,0.00,Wunderground v.1.15,2013-04-07 03:44:00,
2013-04-06 21:59:00,41.5,27.4,29.78,West,263,0.0,0.0,57,0.00,,,0.00,Wunderground v.1.15,2013-04-07 03:59:00,
2013-04-06 22:04:00,41.4,27.3,29.78,West,263,0.0,0.0,57,0.00,,,0.00,Wunderground v.1.15,2013-04-07 04:04:00,
2013-04-06 22:09:00,41.5,27.8,29.78,West,263,0.0,0.0,58,0.00,,,0.00,Wunderground v.1.15,2013-04-07 04:09:00,
2013-04-06 22:14:00,41.4,27.7,29.78,West,263,0.0,0.0,58,0.00,,,0.00,Wunderground v.1.15,2013-04-07 04:14:00,
2013-04-06 22:19:00,41.3,27.6,29.78,West,263,0.0,0.0,58,0.00,,,0.00,Wunderground v.1.15,2013-04-07 04:19:00,
2013-04-06 22:24:00,41.4,27.3,29.79,West,263,0.0,0.0,57,0.00,,,0.00,Wunderground v.1.15,2013-04-07 04:24:00,
2013-04-06 22:29:00,41.6,27.5,29.79,West,263,0.0,0.0,57,0.00,,,0.00,Wunderground v.1.15,2013-04-07 04:29:00,
2013-04-06 22:34:00,41.4,28.1,29.79,West,263,0.0,0.0,59,0.00,,,0.00,Wunderground v.1.15,2013-04-07 04:34:00,
2013-04-06 22:44:00,41.4,27.7,29.79,West,263,0.0,0.0,58,0.00,,,0.00,Wunderground v.1.15,2013-04-07 04:44:00,
2013-04-06 22:49:00,41.6,27.9,29.78,West,263,0.0,0.0,58,0.00,,,0.00,Wunderground v.1.15,2013-04-07 04:49:00,
2013-04-06 22:59:00,41.7,28.0,29.79,West,263,0.0,0.0,58,0.00,,,0.00,Wunderground v.1.15,2013-04-07 04:59:00,
2013-04-06 23:09:00,41.7,28.4,29.78,West,263,0.0,0.0,59,0.00,,,0.00,Wunderground v.1.15,2013-04-07 05:09:00,
2013-04-06 23:14:00,41.6,28.7,29.79,West,263,0.0,0.0,60,0.00,,,0.00,Wunderground v.1.15,2013-04-07 05:14:00,
2013-04-06 23:24:00,41.7,28.0,29.79,West,263,0.0,0.0,58,0.00,,,0.00,Wunderground v.1.15,2013-04-07 05:24:00,
2013-04-06 23:29:00,41.7,28.8,29.79,West,263,0.0,0.0,60,0.00,,,0.00,Wunderground v.1.15,2013-04-07 05:29:00,
2013-04-06 23:39:00,41.6,28.7,29.79,West,263,0.0,0.0,60,0.00,,,0.00,Wunderground v.1.15,2013-04-07 05:39:00,
2013-04-06 23:49:00,41.6,27.9,29.79,West,263,0.0,0.0,58,0.00,,,0.00,Wunderground v.1.15,2013-04-07 05:49:00,
2013-04-06 23:54:00,41.5,28.2,29.79,West,263,0.0,0.0,59,0.00,,,0.00,Wunderground v.1.15,2013-04-07 05:54:00,
2013-04-06 23:59:00,41.5,28.6,29.80,West,263,0.0,0.0,60,0.00,,,0.00,Wunderground v.1.15,2013-04-07 05:59:00,